Regional Weather Roundup
Issued by NWS Cleveland, OH

Home | Current Version | Previous Version | Text Only | Print | Product List | Glossary Off
Versions: 1 2 3 4 5 6 7 8 9 10 11 12 13 14 15 16 17 18 19 20 21 22 23 24 25 26 27 28 29 30 31 32 33 34 35 36 37 38 39 40 41 42 43 44 45 46 47 48 49 50

000
ASUS41 KCLE 200900
RWRCLE
OHIO REGIONAL WEATHER ROUNDUP
NATIONAL WEATHER SERVICE WILMINGTON, OH
500 AM EDT SAT SEP 20 2014

NOTE: "FAIR" INDICATES FEW OR NO CLOUDS BELOW 12,000 FEET WITH NO
SIGNIFICANT WEATHER AND/OR OBSTRUCTIONS TO VISIBILITY.

OHZ001>008-015>018-024>027-034-035-043-044-201000-
   NORTHWEST OHIO

CITY           SKY/WX    TMP DP  RH WIND       PRES   REMARKS
DEFIANCE       CLEAR     53  46  77 SW6       30.01S
FINDLAY        CLEAR     56  50  80 S12       30.02S
TOLEDO EXPRESS CLEAR     52  47  83 S6        30.00F
TOLEDO METCALF CLEAR     52  46  80 S7        30.01S
LIMA           CLEAR     59  50  72 S9        30.04R
$$

OHZ009>014-019>023-028>033-038-089-201000-
   NORTHEAST OHIO

CITY           SKY/WX    TMP DP  RH WIND       PRES   REMARKS
CLE-HOPKINS    PTCLDY    61  57  87 S13       30.06F
CLE-LAKEFRONT  PTCLDY    62  57  83 S16       30.02F
CUY CO. ARPT   NOT AVBL
LORAIN-ELYRIA  PTCLDY    60  55  83 S10       30.04F
ASHTABULA      PTCLDY    58  55  90 S9        30.07F
AKRON-CANTON   MOCLDY    61  56  83 S10       30.09S
WOOSTER        NOT AVBL
MANSFIELD      PTCLDY    58  57  97 S8        30.07F
YOUNGSTOWN     PTCLDY    59  55  87 S8        30.09F
$$

OHZ042-051>053-060>062-070>072-077>081-201000-
  SOUTHWEST OHIO

CITY           SKY/WX    TMP DP  RH WIND       PRES   REMARKS
CINC-COVINGTON PTCLDY    61  57  87 S6        30.06R
CINC-LUNKEN    PTCLDY    52  51  97 CALM      30.08R FOG
HAMILTON       PTCLDY    50  49  96 CALM      30.07R FOG
DAYTON         NOT AVBL
WRIGHT-PAT AFB PTCLDY    55  51  86 SE2       30.06S
DAYTON GENERAL PTCLDY    59  55  87 S8        30.06R
WILMINGTON     PTCLDY    58  55  90 S6        30.07S
$$

OHZ036-037-039>041-045>050-054>059-063>069-073>076-082>088-201000-
  CENTRAL AND SOUTHEAST OHIO

CITY           SKY/WX    TMP DP  RH WIND       PRES   REMARKS
COLUMBUS       CLEAR     59  54  83 CALM      30.07F
OSU AIRPORT    PTCLDY    59  55  87 S6        30.07F
BOLTON FIELD   NOT AVBL
RICKENBACK AFB NOT AVBL
NEWARK         PTCLDY    62  57  83 S7        30.08S
MARION         PTCLDY    54  51  90 S9        30.06S FOG
LANCASTER      PTCLDY    63  58  83 S6        30.09S
ZANESVILLE     PTCLDY    60  55  83 S7        30.10S
NEW PHILLY     MOCLDY    61  57  87 S5        30.11S
$$



USA.gov is the U.S. government's official web portal to all federal, state and local government web resources and services.